Regional Weather Roundup
Issued by NWS Portland, ME

Current Version | Previous Version | Text Only | Print | Product List | Glossary Off
Versions: 1 2 3 4 5 6 7 8 9 10 11 12 13 14 15 16 17 18 19 20 21 22 23 24 25 26 27 28 29 30 31 32 33 34 35 36 37 38 39 40 41 42 43 44 45 46 47 48 49 50
000 ASUS41 KGYX 291510 RWRGYX WEATHER ROUNDUP FOR MAINE AND NEW HAMPSHIRE NATIONAL WEATHER SERVICE GRAY ME 1100 AM EDT MON MAY 29 2017 MEZ002-005-006-010-012-015-018-020-021-024-026-027-029-291600- MAINE CITY SKY/WX TMP DP RH WIND PRES REMARKS PORTLAND FOG 47 45 93 E15G21 30.10S VSB 3/4 SANFORD LGT RAIN 47 46 97 E9 30.07F FOG BAR HARBOR CLOUDY 46 43 89 E9 30.15F WISCASSET CLOUDY 49 45 86 E12 30.12R ROCKLAND CLOUDY 46 44 93 E14 30.14R FRYEBURG CLOUDY 48 47 96 SE6 30.08R LEWISTONAUBURN CLOUDY 48 44 86 E7 30.09S AUGUSTA CLOUDY 49 43 80 SE8 30.11R WATERVILLE CLOUDY 52 45 77 VRB3 30.09R BANGOR CLOUDY 52 46 80 SE9 30.13F GREENVILLE N/A 46 45 96 VRB5 30.07R MILLINOCKET CLOUDY 52 45 77 SE6 30.14S HOULTON CLOUDY 56 48 74 SE12 30.11F PRESQUE ISLE CLOUDY 54 46 74 SE13 30.12F FRENCHVILLE CLOUDY 45 43 93 E10 30.11F CARIBOU CLOUDY 52 46 80 NE10 30.11F $$ NHZ002-005-008-009-011-012-014-291600- NEW HAMPSHIRE CITY SKY/WX TMP DP RH WIND PRES REMARKS PORTSMOUTH DRIZZLE 48 47 97 E10 30.04S FOG ROCHESTER CLOUDY 48 45 89 E7 30.05F FOG NASHUA CLOUDY 53 49 86 E10 30.03R MANCHESTER CLOUDY 51 45 79 E9 30.02R CONCORD CLOUDY 52 48 86 E13 30.03S LACONIA LGT RAIN 50 48 93 E9 30.05S FOG PLYMOUTH CLOUDY 52 47 84 E8 30.03S BERLIN CLOUDY 54 44 69 S8 30.02S WHITEFIELD CLOUDY 57 46 66 S10G21 29.97S JAFFREY CLOUDY 54 49 83 VRB5 30.00R KEENE CLOUDY 57 48 72 CALM 29.99S LEBANON LGT RAIN 56 49 77 VRB5 29.98F MT WASHINGTON FOG 37 37 100 SE24G31 N/A VSB 3/16 $$ VTZ005-007-008-291600- VERMONT CITY SKY/WX TMP DP RH WIND PRES REMARKS ST JOHNSBURY N/A 58 50 75 MISG 29.95R MONTPELIER LGT RAIN 54 50 86 S13 30.00S BURLINGTON LGT RAIN 62 50 64 S13G22 29.91R $$ MAZ007-012-024-CTZ003-RIZ002-NYZ038-NYZ072-291600- SOUTHERN NEW ENGLAND AND NY CITY SKY/WX TMP DP RH WIND PRES REMARKS BOSTON FOG 50 48 93 E14 30.03R VSB 1/2 WORCESTER CLOUDY 50 47 89 NE10 29.98R NANTUCKET RAIN 49 47 93 E14 29.97R FOG PROVIDENCE LGT RAIN 52 50 93 E12 29.99S HARTFORD CLOUDY 58 51 78 E7 29.96S ALBANY RAIN 56 52 86 S6 29.95R FOG NEW YORK CITY CLOUDY 59 53 80 E9 29.93R $$ ANZ081-ANZ082-ANZ150-NHZ014-MEZ023>029-291600- COASTAL MARINE OBSERVATIONS STATION/POSITION TIME TEMP WIND PRES WAVE AIR SEA DIR/SP/G HT/PER (UTC) (F) (DEG/KT/KT) (MB) (FT/S) MOUNT DESERT ROC 1500 44 1020.8R MATINICUS ROCK 1400 44 90/ 19/ 20 1019.2F ISLE OF SHOALS 1400 47 100/ 17/ 18 1017.2R JEFFREYS LEDGE 1436 49 N/A 3/ 5 CASHES LEDGE BUO 1350 47 48 1018.7 3/ 4 GEORGES BANK BUO 1350 49 47 1015.9 4/ 8 $$ .............KEY.............. WCI - WIND CHILL TC - TEMPERATURE IN CELSIUS VSB - VISIBILITY IN MILES HX - HEAT INDEX FAIR- INDICATES FEW OR NO CLOUDS BELOW 12,000 FT, WITH NO SIGNIFICANT WEATHER AND/OR OBSTRUCTIONS TO VISIBILITY.

USA.gov is the U.S. government's official web portal to all federal, state and local government web resources and services.